Weather History for Canberra, CT

Change the Weather History Date:

Thursday, January 2, 2014

  Actual Average Record
Temperature  
Mean Temperature 70 °F -  
Max Temperature 79 °F 82 °F - ()
Min Temperature 60 °F 55 °F - ()
Cooling Degree Days 4    
Growing Degree Days 20 (Base 50)    
Moisture  
Dew Point 48 °F    
Average Humidity 39    
Maximum Humidity 64    
Minimum Humidity 17    
Precipitation  
Precipitation 0.00 in 0.07 in - ()
Sea Level Pressure  
Sea Level Pressure 29.70 in    
Wind  
Wind Speed 13 mph ()    
Max Wind Speed 37 mph    
Max Gust Speed 46 mph    
Visibility 6.2 miles    
Events      
T = Trace of Precipitation, MM = Missing Value Source: Averaged Metar Reports

Daily Weather History Graph

Daily Weather History Graph

Search for Another Location

Airport:

Trip Planner

Search our weather history database for the weather conditions in past years. The results will help you decide how hot, cold, wet, or windy it might be!

Date:

Astronomy

Jan. 02, 2014 Rise Set
Actual Time 5:52 AM EST 8:21 PM EST
Civil Twilight 5:22 AM EST 8:51 PM EST
Nautical Twilight 4:45 AM EST 9:27 PM EST
Astronomical Twilight 4:05 AM EST 10:08 PM EST
Moon 6:34 AM EST (1/2) 8:47 PM EST (1/2)
Length of Visible Light 15h 28m
Length of Day
14h 29m
New Moon, 1% of the Moon is Illuminated
Jan 2
New Moon
Jan 8
First Quarter
Jan 16
Full
Jan 24
Last Quarter
Jan 31
New

Hourly Weather History & Observations

Time (EST) Temp. Dew Point Humidity Pressure Visibility Wind Dir Wind Speed Gust Speed Precip Events Conditions
12:00 AM 62 °F 46 °F 45% 29.73 in - SSW 3.5 mph - -  
12:00 AM 62.6 °F 46.4 °F 55% 29.80 in 6.2 mi SSW 3.5 mph - N/A   Unknown
12:30 AM 69.8 °F 44.6 °F 40% 29.77 in 6.2 mi West 6.9 mph - N/A   Unknown
1:02 AM 75.2 °F 42.8 °F 31% 29.77 in 6.2 mi West 26.5 mph - N/A   Scattered Clouds
1:07 AM 75.2 °F 42.8 °F 31% 29.77 in 6.2 mi West 25.3 mph 36.8 mph N/A   Scattered Clouds
1:20 AM 75.2 °F 46.4 °F 36% 29.77 in 6.2 mi West 36.8 mph - N/A   Mostly Cloudy
1:21 AM 75.2 °F 46.4 °F 36% 29.77 in 6.2 mi West 34.5 mph 46.0 mph N/A   Mostly Cloudy
1:30 AM 73.4 °F 46.4 °F 38% 29.77 in 6.2 mi West 31.1 mph 43.7 mph N/A   Scattered Clouds
2:00 AM 70 °F 51 °F 41% 29.71 in - WNW 25.3 mph - -  
2:00 AM 69.8 °F 51.8 °F 53% 29.77 in 6.2 mi WNW 25.3 mph - N/A   Mostly Cloudy
2:04 AM 69.8 °F 51.8 °F 53% 29.77 in 6.2 mi WNW 23.0 mph 34.5 mph N/A   Mostly Cloudy
2:30 AM 68.0 °F 51.8 °F 56% 29.74 in 6.2 mi West 19.6 mph - N/A   Mostly Cloudy
3:00 AM 68 °F 53 °F 47% 29.66 in - WSW 10.4 mph - -  
3:00 AM 68.0 °F 51.8 °F 56% 29.71 in 6.2 mi WSW 10.4 mph - N/A   Scattered Clouds
3:30 AM 68.0 °F 51.8 °F 56% 29.68 in 6.2 mi West 8.1 mph - N/A   Unknown
4:00 AM 66.2 °F 51.8 °F 60% 29.68 in 6.2 mi SSW 5.8 mph - N/A   Unknown
4:30 AM 64.4 °F 51.8 °F 64% 29.68 in - NW 6.9 mph - N/A   Clear
5:00 AM 66 °F 52 °F 50% 29.60 in - NNE 5.8 mph - -  
5:00 AM 66.2 °F 51.8 °F 60% 29.68 in - NNE 5.8 mph - N/A   Clear
5:30 AM 66.2 °F 51.8 °F 60% 29.65 in - NW 3.5 mph - N/A   Clear
6:00 AM 68 °F 50 °F 42% 29.62 in - NNW 8.1 mph - -  
6:00 AM 68.0 °F 50.0 °F 52% 29.68 in - NNW 8.1 mph - N/A   Clear
6:30 AM 68.0 °F 50.0 °F 52% 29.68 in - NW 8.1 mph - N/A   Clear
7:00 AM 69.8 °F 50.0 °F 49% 29.68 in - WNW 9.2 mph - N/A   Clear
7:30 AM 71.6 °F 50.0 °F 46% 29.68 in - WNW 12.7 mph - N/A   Clear
8:00 AM 73 °F 49 °F 32% 29.65 in - NNW 12.7 mph - -  
8:00 AM 73.4 °F 50.0 °F 44% 29.71 in 6.2 mi NNW 12.7 mph - N/A   Mostly Cloudy
8:30 AM 75.2 °F 48.2 °F 38% 29.71 in 6.2 mi NNW 13.8 mph - N/A   Mostly Cloudy
9:00 AM 77 °F 51 °F 29% 29.65 in - NW 15.0 mph - -  
9:00 AM 77.0 °F 50.0 °F 39% 29.71 in 6.2 mi NW 15.0 mph - N/A   Mostly Cloudy
9:30 AM 78.8 °F 51.8 °F 39% 29.71 in 6.2 mi WNW 15.0 mph - N/A   Mostly Cloudy
10:00 AM 78.8 °F 51.8 °F 39% 29.71 in 6.2 mi WNW 16.1 mph - N/A   Mostly Cloudy
10:30 AM 78.8 °F 51.8 °F 39% 29.71 in 6.2 mi NW 17.3 mph - N/A   Mostly Cloudy
11:00 AM 79 °F 52 °F 29% 29.64 in - NW 16.1 mph - -  
11:00 AM 78.8 °F 51.8 °F 39% 29.71 in - NW 16.1 mph - N/A   Clear
11:22 AM 78.8 °F 51.8 °F 39% 29.71 in - WNW 18.4 mph 29.9 mph N/A   Clear
11:30 AM 78.8 °F 51.8 °F 39% 29.71 in - WNW 20.7 mph - N/A   Clear
12:00 PM 79 °F 51 °F 27% 29.67 in - WNW 19.6 mph - -  
12:00 PM 78.8 °F 51.8 °F 39% 29.74 in - WNW 19.6 mph - N/A   Clear
12:30 PM 78.8 °F 50.0 °F 36% 29.71 in - WNW 15.0 mph - N/A   Clear
1:00 PM 78.8 °F 48.2 °F 34% 29.71 in - WNW 10.4 mph - N/A   Clear
1:30 PM 78.8 °F 42.8 °F 28% 29.71 in - WNW 17.3 mph - N/A   Clear
2:00 PM 79 °F 42 °F 17% 29.67 in - WNW 13.8 mph - -  
2:00 PM 78.8 °F 42.8 °F 28% 29.74 in - WNW 13.8 mph - N/A   Clear
2:30 PM 78.8 °F 41.0 °F 26% 29.71 in - West 10.4 mph - N/A   Clear
3:00 PM 79 °F 43 °F 18% 29.64 in - WNW 13.8 mph - -  
3:00 PM 78.8 °F 42.8 °F 28% 29.71 in - WNW 13.8 mph - N/A   Clear
3:30 PM 78.8 °F 42.8 °F 28% 29.71 in - WNW 13.8 mph - N/A   Clear
4:00 PM 78.8 °F 44.6 °F 30% 29.68 in - WNW 12.7 mph - N/A   Clear
4:30 PM 78.8 °F 42.8 °F 28% 29.68 in - NW 13.8 mph - N/A   Clear
5:00 PM 77 °F 44 °F 21% 29.62 in - WNW 15.0 mph - -  
5:00 PM 77.0 °F 44.6 °F 32% 29.68 in - WNW 15.0 mph - N/A   Clear
5:30 PM 77.0 °F 44.6 °F 32% 29.68 in - NW 13.8 mph - N/A   Clear
6:00 PM 76 °F 44 °F 22% 29.62 in - NW 13.8 mph - -  
6:00 PM 77.0 °F 44.6 °F 32% 29.68 in - NW 13.8 mph - N/A   Clear
6:30 PM 77.0 °F 44.6 °F 32% 29.65 in - North 9.2 mph - N/A   Clear
7:00 PM 75.2 °F 44.6 °F 34% 29.68 in - NNW 10.4 mph - N/A   Clear
7:30 PM 75.2 °F 44.6 °F 34% 29.68 in - NNW 11.5 mph - N/A   Clear
8:00 PM 75 °F 44 °F 22% 29.65 in - NW 17.3 mph - -  
8:00 PM 75.2 °F 42.8 °F 31% 29.71 in - NW 17.3 mph - N/A   Clear
8:30 PM 73.4 °F 44.6 °F 36% 29.71 in - NNW 10.4 mph - N/A   Clear
9:00 PM 74 °F 47 °F 28% 29.66 in - NNW 10.4 mph - -  
9:00 PM 73.4 °F 48.2 °F 41% 29.71 in 6.2 mi NNW 10.4 mph - N/A   Unknown
9:30 PM 73.4 °F 48.2 °F 41% 29.74 in 6.2 mi NW 13.8 mph - N/A   Unknown
10:00 PM 71.6 °F 48.2 °F 43% 29.74 in 6.2 mi NW 15.0 mph - N/A   Unknown
10:30 PM 71.6 °F 46.4 °F 41% 29.74 in 6.2 mi WNW 11.5 mph - N/A   Unknown
11:00 PM 71 °F 47 °F 31% 29.69 in - NW 10.4 mph - -  
11:00 PM 71.6 °F 46.4 °F 41% 29.74 in 6.2 mi NW 10.4 mph - N/A   Unknown
11:30 PM 69.8 °F 46.4 °F 43% 29.74 in 6.2 mi WNW 8.1 mph - N/A   Unknown